sat.trackr.live / text

‹ back to catalog

STARLINK-32705

NORAD 62479 · 2024-254T

PAYLOAD ACTIVE UNKNOWN

§ Identity

Operator
Country
US
Launch date
2024-12-31
Launch site
AFETR
Launch vehicle
Mass (kg)
RCS (m²)

Purposes: comms

External: N2YO · Heavens-Above · Gunter

§ Orbital elements

Epoch: 2026-09-21T13:00:40.587552Z

Period
94.27 min
Inclination
43.0033°
Eccentricity
0.0001380
Mean motion
15.27591610 rev/d
Perigee alt
482.1 km
Apogee alt
484.0 km
Semi-major
6,861.2 km
B*
2.7985e-4
RAAN
342.7203°
Arg perigee
258.4909°
Mean anomaly
101.5787°
Rev number
9,753

§ Raw data

STARLINK-327051 62479U 24254T   26264.54213643  .00007449  00000+0  27985-3 0  99902 62479  43.0033 342.7203 0001380 258.4909 101.5787 15.27591610 97533

JSON: /api/v1/satellites/62479 · /tle

For live sub-satellite position, see the globe view (requires WebGL).

§ Visibility from observer

Set your observer location to see the next 7 days of passes ≥ 10°. The values pass through the URL so the page stays shareable.

No JS? Fill the form by hand. The geolocation button needs JavaScript.